SCP
-0 -0 -0 -0 -0 -0 -0 0 0 0 0 0 0 0 0 0 0 0 -0 -0 -0 -0 -0 -0 0 0 -0 0 0 0 0 0 0 0 0 0 0 0 0 0 0 0 0 0 0 0 0
-0 -0 -0 -0 -0 -0 -0 -0 0 0 0 0 0 0 0 -0 -0 -0 -0 -0 -0 -0 -0 -0 -0 0 0 0 0 0 0 0 0 0 0 0 0 0 0 0 0 0 0 0 0 0 0
-0 -0 -0 -0 -0 -0 -0 -0 -0 -0 -0 -0 -0 -0 0 -0 -0 -0 -0 -0 -0 -0 -0 -0 0 0 0 0 0 0 0 0 0 0 0 0 0 0 0 0 0 0 0 0 0 0 0
-0 -0 -0 -0 -0 -0 -0 -0 -0 -0 -0 0 0 -0 -0 -0 -0 -0 -0 -0 0 -0 -0 0 0 0 0 0 0 0 0 0 0 0 0 0 0 0 0 0 0 0 0 0 0 0 0
-0 -0 -0 -0 -0 -0 -0 -0 -0 -0 0 0 0 -0 -0 -0 -0 -0 -0 -0 -0 -0 0 0 0 0 -0 0 0 0 0 0 0 0 0 0 0 0 0 0 0 0 0 0 0 0 0
-0 -0 0 -0 -0 -0 -0 -0 -0 0 0 0 0 -0 -0 -0 -0 -0 -0 -0 -0 0 0 0 0 -0 -0 0 0 0 0 0 0 0 0 0 0 0 0 0 0 0 0 0 0 0 0
-0 -0 -0 0 0 0 -0 0 0 0 0 -0 -0 -0 -0 -0 -0 -0 -0 0 -0 -0 0 -0 -0 -0 0 0 0 0 0 0 0 0 0 0 0 0 0 0 0 0 0 0 0 0 0
0 -0 -0 -0 -0 -0 -0 -0 -0 0 -0 -0 -0 -0 -0 -0 -0 -0 0 0 0 0 0 -0 -0 -0 0 0 0 0 0 0 0 0 0 0 0 0 0 0 0 0 0 0 0 0 0
0 0 0 -0 -0 -0 0 0 -0 -0 -0 -0 0 -0 -0 -0 -0 0 0 0 0 0 0 -0 0 0 0 0 0 0 0 0 0 0 0 0 0 0 0 0 0 0 0 0 0 0 0
0 0 0 0 0 -0 0 0 0 -0 -0 -0 -0 -0 0 -0 0 0 0 0 0 0 0 0 0 0 0 0 0 0 0 0 0 0 0 0 0 0 0 0 0 0 0 0 0 0 0
0 0 0 0 0 -0 0 0 0 0 0 0 0 -0 0 0 0 0 0 0 0 0 0 0 0 -0 0 0 -0 0 0 0 0 0 0 0 0 0 0 0 0 0 0 0 0 0 0
0 0 0 0 0 0 0 0 0 0 0 0 0 0 -0 0 0 0 0 0 0 0 0 0 0 0 0 0 0 -0 -0 0 0 0 0 0 0 0 0 0 0 0 0 0 0 0 0
0 0 0 0 0 0 0 0 0 0 0 0 0 0 -0 0 0 0 0 0 0 0 0 0 0 0 -0 0 0 0 -0 -0 0 0 0 0 0 0 0 0 0 0 0 0 0 0 0
0 0 0 0 0 0 0 0 0 0 0 0 0 0 0 0 0 0 0 0 0 0 0 0 0 0 -0 0 0 0 0 0 0 0 0 0 0 0 0 0 0 0 0 0 0 0 0
0 0 0 0 0 0 0 0 0 0 0 0 0 0 0 0 0 0 0 0 0 0 0 0 0 0 0 0 -0 0 0 -0 0 0 -0 0 0 0 0 0 0 0 0 0 0 0 0
0 0 0 0 0 0 0 0 0 0 0 0 0 0 0 0 0 0 0 0 0 0 0 0 0 0 0 0 0 0 0 0 0 0 0 0 0 0 0 0 0 0 0 0 0 0 0
0 0 0 0 0 0 0 0 0 0 0 0 0 0 0 0 0 0 0 0 0 0 0 0 0 0 0 -0 0 0 0 0 -0 0 0 0 0 0 0 0 0 0 0 0 0 0 0
0 0 0 0 0 0 0 0 0 0 0 0 0 0 0 0 0 0 0 0 0 0 0 0 0 0 0 0 0 0 0 0 0 -0 0 0 0 0 0 0 0 0 0 0 0 0 0
0 0 0 0 0 0 0 0 0 0 0 0 0 0 0 0 0 0 0 0 0 0 0 0 0 0 0 0 0 -0 0 0 0 0 -0 0 0 0 0 0 0 0 0 0 0 0 0
0 0 0 0 0 0 0 0 0 0 0 0 0 0 0 0 0 0 0 0 0 0 0 0 0 0 0 0 0 0 0 0 0 0 0 0 0 0 0 0 0 0 0 0 0 0 -0
0 0 0 0 0 0 0 0 0 0 0 0 0 0 0 0 0 0 0 0 0 0 0 0 0 0 0 0 0 0 0 0 -0 0 0 0 -0 0 0 0 0 0 0 0 0 0 -0
0 0 0 0 0 0 0 0 0 0 0 0 0 0 0 0 0 0 0 0 0 0 0 0 0 -0 0 0 0 -0 -0 0 -0 0 0 0 0 0 0 0 0 0 0 0 0 0 -0
0 0 0 0 0 0 0 0 0 0 0 0 0 0 0 0 0 0 0 0 0 0 0 0 0 -0 0 0 0 -0 -0 -0 -0 0 -0 -0 0 0 -0 0 0 0 0 0 0 0 -0
0 0 0 0 0 0 0 0 0 0 0 0 0 0 0 0 0 0 0 0 0 0 0 0 0 0 0 -0 -0 -0 0 -0 -0 -0 -0 0 0 -0 -0 0 0 0 0 0 0 0 0
0 0 0 0 0 0 0 0 0 0 0 0 0 0 0 0 0 0 0 0 0 0 0 0 0 0 0 0 0 0 0 0 0 -0 -0 -0 0 -0 0 0 -0 -0 0 0 0 0 0
0 0 0 0 0 0 0 0 0 0 0 0 0 0 0 0 0 0 0 0 0 0 0 0 0 0 -0 0 0 0 0 0 0 0 -0 -0 -0 0 0 -0 0 0 0 0 0 0 0
0 0 0 0 0 0 0 0 0 0 0 0 0 0 0 0 0 0 0 0 0 0 0 0 0 0 -0 -0 0 0 0 0 0 0 0 0 -0 -0 -0 -0 0 0 0 0 0 0 0
0 0 0 0 0 0 0 0 0 0 0 0 0 0 0 0 0 0 0 0 0 0 0 0 0 0 0 0 0 0 0 0 0 0 -0 0 0 0 0 0 -0 0 -0 0 0 0 0
0 0 0 0 0 0 0 0 0 0 0 0 0 0 0 0 0 0 0 0 0 0 0 0 0 0 0 0 0 0 0 0 0 0 0 0 0 0 0 0 -0 -0 0 0 0 0 0
Wind_Speed_500mb
34 35 36 36 36 36 37 36 35 36 36 37 38 38 39 41 42 43 43 42 44 46 47 48 45 46 45 18 41 27 41 49 36 30 21 47 51 33 16 12 22 30 26 32 40 48 48
34 34 34 35 36 37 37 36 35 35 35 35 35 36 36 38 38 39 39 43 44 42 44 46 45 41 28 15 43 34 45 39 40 37 22 43 23 43 12 14 27 4 5 36 42 45 43
33 33 33 33 34 36 37 37 36 37 38 38 39 42 44 45 43 38 35 33 30 36 39 43 40 31 21 59 56 52 60 59 46 36 36 11 54 27 14 4 32 35 24 24 29 8 12
30 30 30 32 34 35 37 38 39 41 44 46 45 44 45 45 40 35 27 29 31 35 37 36 33 21 23 72 47 43 30 32 45 46 41 30 18 19 12 12 9 4 8 26 28 28 17
31 33 37 38 39 40 40 41 42 43 44 45 44 45 46 46 43 39 24 28 31 25 22 47 37 21 31 39 31 31 43 48 38 38 34 25 18 16 9 9 7 10 15 18 5 14 17
35 37 38 40 43 44 43 43 45 47 48 49 49 47 45 41 34 30 22 28 35 22 24 38 11 17 18 52 73 75 58 45 26 27 34 33 20 9 6 11 32 20 25 1 7 7 22
35 37 39 43 46 48 49 50 51 53 54 54 53 48 43 30 23 22 26 32 43 12 42 34 46 41 74 70 67 54 44 36 36 17 14 16 9 30 33 22 16 20 8 2 4 10 15
36 38 41 43 45 47 49 51 53 54 54 53 52 51 46 27 16 19 23 26 38 30 22 29 20 22 37 51 41 47 30 9 14 7 3 3 34 9 4 7 15 16 19 21 12 21 13
39 40 41 41 43 48 52 54 54 53 53 52 48 47 47 30 11 21 27 26 37 32 8 24 21 26 37 35 16 46 7 9 6 17 11 11 8 7 24 11 13 12 13 11 14 21 39
44 44 44 44 46 49 53 56 56 54 52 51 47 44 38 31 9 31 26 34 40 25 5 11 19 16 34 37 9 44 29 17 7 15 12 12 14 12 8 12 21 34 10 14 8 8 17
45 46 46 46 48 50 54 57 58 56 53 50 47 39 27 27 28 30 37 40 35 3 7 28 13 32 61 16 31 19 22 14 25 21 4 13 5 10 24 19 15 12 22 16 25 22 8
49 49 49 50 50 51 54 58 60 58 54 52 45 32 24 19 27 35 41 47 6 9 8 17 27 36 32 20 10 16 16 30 22 26 17 13 30 8 13 15 16 10 6 19 18 6 15
51 51 52 54 56 56 55 58 63 62 59 58 46 29 14 12 25 37 42 23 8 9 11 17 20 32 30 23 13 15 16 10 6 9 7 7 27 40 23 12 7 7 10 3 4 7 22
50 52 52 54 58 61 62 58 60 63 63 63 43 20 5 12 21 34 39 9 13 4 11 23 23 31 9 26 11 17 13 11 16 1 5 2 10 16 6 13 11 14 17 9 13 9 9
49 51 53 56 58 62 65 65 60 60 59 62 33 16 10 10 17 29 24 10 9 6 12 19 28 9 10 16 10 15 11 4 6 0 7 3 8 8 5 3 8 2 9 14 8 9 3
49 51 53 55 58 62 65 67 64 62 58 58 32 7 13 12 15 24 11 6 6 9 22 15 5 6 10 15 13 15 7 4 6 1 2 3 7 5 6 4 10 10 6 6 2 8 9
47 50 52 55 59 63 64 65 64 65 58 54 26 5 9 10 15 10 5 9 13 29 32 9 12 17 16 10 8 9 5 9 1 6 4 3 3 6 5 9 11 4 4 7 7 10 7
47 49 51 53 57 60 65 65 61 63 63 54 20 4 13 7 9 3 1 7 24 17 36 15 8 10 9 6 8 8 7 8 7 7 4 3 4 6 18 10 7 0 8 7 7 12 9
50 52 52 53 55 59 60 61 60 56 60 53 27 10 12 18 5 6 12 11 9 15 26 10 10 4 3 7 7 9 10 9 14 7 4 1 2 6 16 5 4 5 6 7 2 4 14
52 52 54 55 55 56 58 57 58 56 51 38 14 8 10 8 10 3 8 8 10 27 26 27 13 7 4 9 14 13 14 10 6 11 9 9 6 11 9 10 8 10 11 4 4 6 13
54 55 58 57 55 54 53 54 55 54 47 26 16 4 5 8 8 19 6 9 16 19 7 17 8 9 26 12 19 12 10 8 8 21 7 9 11 13 18 27 28 27 32 25 22 18 12
54 58 60 61 55 52 50 51 52 53 48 14 14 12 11 34 28 8 7 6 19 22 12 12 13 36 25 23 26 39 34 13 15 5 12 12 8 8 24 24 32 37 39 35 31 31 19
52 55 60 57 57 53 52 45 46 48 45 14 19 8 11 17 7 7 6 13 29 26 20 26 32 33 29 32 35 52 54 57 28 12 16 14 8 9 12 17 23 20 36 39 28 13 22
54 57 60 59 59 54 51 43 38 37 40 33 21 16 8 8 6 10 23 40 24 29 23 45 42 30 26 75 76 46 45 44 37 35 36 14 10 6 10 10 12 12 7 28 37 26 34
55 60 60 58 61 55 49 41 33 30 29 34 24 12 8 9 14 30 21 16 35 35 20 34 44 51 51 37 10 13 5 3 5 3 28 32 19 5 6 7 21 26 11 13 3 14 24
54 60 65 60 61 59 49 41 32 29 25 33 31 13 13 14 9 18 24 30 16 14 9 24 43 34 26 7 6 7 6 7 6 6 13 12 23 13 5 8 6 3 10 27 15 9 10
59 67 69 66 61 57 48 39 32 30 24 25 32 11 14 16 31 18 11 9 17 12 8 20 22 15 23 9 6 4 6 8 7 12 8 5 12 23 18 10 11 5 16 28 14 3 24
67 72 69 61 57 53 47 39 33 31 25 24 33 25 23 18 59 42 26 24 25 21 5 24 20 8 9 11 6 6 5 7 8 6 9 4 4 6 8 8 12 9 34 10 10 23 20
71 68 66 57 56 53 46 41 35 31 28 24 37 34 31 34 64 81 77 71 69 46 40 12 7 5 5 6 6 7 5 6 11 6 3 3 3 3 4 3 14 48 40 35 9 5 35
Wind_Direction_500mb
31 31 29 28 27 26 24 20 15 9 5 2 359 356 352 347 341 336 330 328 328 326 321 317 313 312 312 306 274 280 277 269 278 309 259 211 215 204 192 198 212 240 240 237 249 260 261
31 29 26 23 22 19 17 12 8 4 0 358 353 350 348 342 336 333 333 332 332 331 326 315 311 303 300 278 306 302 306 293 288 267 258 228 217 219 251 210 204 200 195 248 249 253 266
27 24 20 16 17 14 11 8 5 3 0 359 356 352 349 345 342 345 347 350 345 329 320 316 308 292 255 267 300 292 288 283 266 248 254 244 224 204 239 273 251 266 282 282 252 194 239
17 12 11 9 10 8 5 2 0 360 359 357 352 348 345 343 339 344 353 359 349 315 312 314 315 293 266 306 312 303 314 302 270 234 232 243 211 256 220 282 312 213 169 243 250 231 214
9 5 6 4 1 1 359 358 357 356 354 350 346 344 346 344 343 342 349 343 348 330 344 336 319 316 280 321 323 335 346 310 296 229 224 231 231 216 171 170 353 236 241 223 290 201 205
3 3 3 2 360 358 356 355 354 353 350 347 345 342 345 342 340 332 333 329 320 279 330 334 344 323 284 303 310 301 288 314 300 211 211 210 208 168 162 163 212 221 230 59 169 223 211
11 11 11 8 5 2 358 356 354 352 349 344 340 337 339 338 333 323 333 345 5 332 307 292 289 282 284 313 309 288 298 298 296 247 177 188 161 212 212 225 283 297 323 334 301 244 229
9 9 10 9 5 3 0 357 354 351 347 342 339 335 336 338 321 319 341 11 355 323 303 318 293 309 330 321 298 298 269 264 336 304 297 150 228 174 143 177 224 255 269 271 286 276 274
14 13 12 11 9 5 0 356 353 351 348 343 341 335 335 344 299 332 327 342 353 337 285 294 300 330 359 350 296 290 231 232 272 285 250 203 251 251 236 246 258 240 230 257 258 297 291
13 12 11 9 7 5 1 357 354 353 351 347 346 336 337 346 343 340 357 341 340 335 36 282 327 332 336 352 295 322 12 248 237 234 232 234 244 221 228 244 226 254 234 260 273 213 257
13 10 7 3 2 1 0 358 356 355 354 349 346 334 336 332 331 336 343 338 339 307 331 329 324 332 330 317 325 318 359 230 231 223 186 243 226 197 226 232 231 263 226 232 225 249 276
14 10 5 2 360 357 355 356 355 354 352 347 345 333 328 323 341 350 338 334 342 49 298 328 337 325 339 340 343 335 351 336 252 234 237 230 274 202 219 228 219 254 241 223 232 169 248
10 9 7 5 3 0 356 355 354 353 352 347 345 328 306 331 339 352 342 343 42 87 316 336 318 320 314 338 321 347 325 252 83 5 33 241 249 252 241 221 220 168 85 213 140 194 231
7 5 6 6 5 3 360 355 356 354 352 349 349 10 22 359 357 353 343 43 61 312 276 308 315 303 314 1 312 350 353 14 36 138 269 245 284 223 198 198 193 187 169 184 184 190 237
2 0 0 2 3 3 0 358 355 356 354 351 2 23 40 3 359 359 357 47 200 237 276 323 322 331 330 345 313 350 331 267 208 246 186 344 226 337 154 179 155 230 176 205 3 229 199
360 1 359 359 359 0 1 359 355 358 358 353 355 54 40 11 353 349 58 292 252 244 309 298 275 270 312 311 321 336 291 273 322 313 300 276 288 290 339 12 212 177 214 145 96 237 241
359 1 1 360 358 357 357 0 357 355 359 358 358 50 22 357 334 357 120 241 283 300 321 305 272 289 298 316 272 274 285 303 118 340 342 21 93 285 330 203 205 158 241 222 184 211 228
354 352 353 354 355 356 356 359 0 356 357 3 3 51 333 300 10 52 327 268 295 302 329 298 236 251 253 304 274 270 275 235 156 166 200 214 133 262 240 244 273 65 211 167 180 237 249
353 351 348 351 353 355 355 356 2 359 357 351 344 316 33 349 66 312 300 291 267 325 313 310 285 288 179 263 304 264 269 295 270 183 184 142 102 335 323 33 133 208 201 210 205 298 240
347 348 347 345 347 350 352 352 356 4 356 355 352 354 332 7 37 131 310 280 300 324 307 336 275 276 297 262 228 266 260 288 332 228 185 126 196 179 206 260 356 299 270 219 216 233 240
350 349 346 341 341 346 348 348 350 359 3 5 6 350 13 306 334 312 271 270 320 340 294 306 278 325 315 279 294 242 239 275 279 262 126 141 226 212 239 255 268 265 265 258 231 246 243
342 341 340 344 339 340 344 345 346 352 6 11 6 358 327 298 287 282 285 263 314 323 312 286 282 312 302 275 253 277 273 234 262 283 156 176 262 279 278 259 254 265 251 244 242 238 253
334 334 336 337 341 335 337 340 343 346 2 7 342 327 277 273 283 286 259 314 309 317 295 266 296 306 297 289 297 285 273 269 240 219 197 188 217 265 268 308 328 260 230 224 221 207 199
326 327 330 331 335 332 330 333 337 344 346 352 349 336 294 274 273 278 291 295 304 305 291 290 301 292 295 311 306 288 259 254 243 235 223 202 191 217 287 313 251 254 17 215 211 211 214
325 327 329 327 330 330 327 328 330 334 331 332 338 301 268 283 264 295 279 319 304 308 281 291 299 306 318 314 323 329 328 182 254 350 216 222 217 226 239 245 302 291 38 18 312 262 221
329 332 331 328 327 326 324 321 320 322 326 316 332 284 247 289 255 266 313 296 293 307 296 278 313 329 345 10 348 322 303 294 315 273 205 259 194 191 201 262 277 13 330 350 317 271 85
327 328 327 327 326 324 324 321 308 315 319 307 307 288 251 260 279 287 242 288 292 277 281 293 333 325 7 1 2 321 293 310 315 323 345 77 137 205 214 239 270 265 294 313 186 219 319
323 325 324 324 326 324 320 316 307 303 312 303 294 308 269 251 289 277 265 254 260 271 272 306 337 354 355 5 354 328 294 317 304 271 321 333 250 186 206 236 243 5 309 209 330 310 304
320 320 319 326 328 324 318 317 311 302 298 299 289 302 293 265 273 291 284 273 266 272 264 268 281 285 310 341 351 300 291 296 299 315 321 2 311 291 298 287 306 288 266 284 325 287 11
Wind_Speed_850mb
34 35 36 36 36 36 37 36 35 36 36 37 38 38 39 41 42 43 43 42 44 46 47 48 45 46 45 18 41 27 41 49 36 30 21 47 51 33 16 12 22 30 26 32 40 48 48
34 34 34 35 36 37 37 36 35 35 35 35 35 36 36 38 38 39 39 43 44 42 44 46 45 41 28 15 43 34 45 39 40 37 22 43 23 43 12 14 27 4 5 36 42 45 43
33 33 33 33 34 36 37 37 36 37 38 38 39 42 44 45 43 38 35 33 30 36 39 43 40 31 21 59 56 52 60 59 46 36 36 11 54 27 14 4 32 35 24 24 29 8 12
30 30 30 32 34 35 37 38 39 41 44 46 45 44 45 45 40 35 27 29 31 35 37 36 33 21 23 72 47 43 30 32 45 46 41 30 18 19 12 12 9 4 8 26 28 28 17
31 33 37 38 39 40 40 41 42 43 44 45 44 45 46 46 43 39 24 28 31 25 22 47 37 21 31 39 31 31 43 48 38 38 34 25 18 16 9 9 7 10 15 18 5 14 17
35 37 38 40 43 44 43 43 45 47 48 49 49 47 45 41 34 30 22 28 35 22 24 38 11 17 18 52 73 75 58 45 26 27 34 33 20 9 6 11 32 20 25 1 7 7 22
35 37 39 43 46 48 49 50 51 53 54 54 53 48 43 30 23 22 26 32 43 12 42 34 46 41 74 70 67 54 44 36 36 17 14 16 9 30 33 22 16 20 8 2 4 10 15
36 38 41 43 45 47 49 51 53 54 54 53 52 51 46 27 16 19 23 26 38 30 22 29 20 22 37 51 41 47 30 9 14 7 3 3 34 9 4 7 15 16 19 21 12 21 13
39 40 41 41 43 48 52 54 54 53 53 52 48 47 47 30 11 21 27 26 37 32 8 24 21 26 37 35 16 46 7 9 6 17 11 11 8 7 24 11 13 12 13 11 14 21 39
44 44 44 44 46 49 53 56 56 54 52 51 47 44 38 31 9 31 26 34 40 25 5 11 19 16 34 37 9 44 29 17 7 15 12 12 14 12 8 12 21 34 10 14 8 8 17
45 46 46 46 48 50 54 57 58 56 53 50 47 39 27 27 28 30 37 40 35 3 7 28 13 32 61 16 31 19 22 14 25 21 4 13 5 10 24 19 15 12 22 16 25 22 8
49 49 49 50 50 51 54 58 60 58 54 52 45 32 24 19 27 35 41 47 6 9 8 17 27 36 32 20 10 16 16 30 22 26 17 13 30 8 13 15 16 10 6 19 18 6 15
51 51 52 54 56 56 55 58 63 62 59 58 46 29 14 12 25 37 42 23 8 9 11 17 20 32 30 23 13 15 16 10 6 9 7 7 27 40 23 12 7 7 10 3 4 7 22
50 52 52 54 58 61 62 58 60 63 63 63 43 20 5 12 21 34 39 9 13 4 11 23 23 31 9 26 11 17 13 11 16 1 5 2 10 16 6 13 11 14 17 9 13 9 9
49 51 53 56 58 62 65 65 60 60 59 62 33 16 10 10 17 29 24 10 9 6 12 19 28 9 10 16 10 15 11 4 6 0 7 3 8 8 5 3 8 2 9 14 8 9 3
49 51 53 55 58 62 65 67 64 62 58 58 32 7 13 12 15 24 11 6 6 9 22 15 5 6 10 15 13 15 7 4 6 1 2 3 7 5 6 4 10 10 6 6 2 8 9
47 50 52 55 59 63 64 65 64 65 58 54 26 5 9 10 15 10 5 9 13 29 32 9 12 17 16 10 8 9 5 9 1 6 4 3 3 6 5 9 11 4 4 7 7 10 7
47 49 51 53 57 60 65 65 61 63 63 54 20 4 13 7 9 3 1 7 24 17 36 15 8 10 9 6 8 8 7 8 7 7 4 3 4 6 18 10 7 0 8 7 7 12 9
50 52 52 53 55 59 60 61 60 56 60 53 27 10 12 18 5 6 12 11 9 15 26 10 10 4 3 7 7 9 10 9 14 7 4 1 2 6 16 5 4 5 6 7 2 4 14
52 52 54 55 55 56 58 57 58 56 51 38 14 8 10 8 10 3 8 8 10 27 26 27 13 7 4 9 14 13 14 10 6 11 9 9 6 11 9 10 8 10 11 4 4 6 13
54 55 58 57 55 54 53 54 55 54 47 26 16 4 5 8 8 19 6 9 16 19 7 17 8 9 26 12 19 12 10 8 8 21 7 9 11 13 18 27 28 27 32 25 22 18 12
54 58 60 61 55 52 50 51 52 53 48 14 14 12 11 34 28 8 7 6 19 22 12 12 13 36 25 23 26 39 34 13 15 5 12 12 8 8 24 24 32 37 39 35 31 31 19
52 55 60 57 57 53 52 45 46 48 45 14 19 8 11 17 7 7 6 13 29 26 20 26 32 33 29 32 35 52 54 57 28 12 16 14 8 9 12 17 23 20 36 39 28 13 22
54 57 60 59 59 54 51 43 38 37 40 33 21 16 8 8 6 10 23 40 24 29 23 45 42 30 26 75 76 46 45 44 37 35 36 14 10 6 10 10 12 12 7 28 37 26 34
55 60 60 58 61 55 49 41 33 30 29 34 24 12 8 9 14 30 21 16 35 35 20 34 44 51 51 37 10 13 5 3 5 3 28 32 19 5 6 7 21 26 11 13 3 14 24
54 60 65 60 61 59 49 41 32 29 25 33 31 13 13 14 9 18 24 30 16 14 9 24 43 34 26 7 6 7 6 7 6 6 13 12 23 13 5 8 6 3 10 27 15 9 10
59 67 69 66 61 57 48 39 32 30 24 25 32 11 14 16 31 18 11 9 17 12 8 20 22 15 23 9 6 4 6 8 7 12 8 5 12 23 18 10 11 5 16 28 14 3 24
67 72 69 61 57 53 47 39 33 31 25 24 33 25 23 18 59 42 26 24 25 21 5 24 20 8 9 11 6 6 5 7 8 6 9 4 4 6 8 8 12 9 34 10 10 23 20
71 68 66 57 56 53 46 41 35 31 28 24 37 34 31 34 64 81 77 71 69 46 40 12 7 5 5 6 6 7 5 6 11 6 3 3 3 3 4 3 14 48 40 35 9 5 35
Wind_Direction_850mb
31 31 29 28 27 26 24 20 15 9 5 2 359 356 352 347 341 336 330 328 328 326 321 317 313 312 312 306 274 280 277 269 278 309 259 211 215 204 192 198 212 240 240 237 249 260 261
31 29 26 23 22 19 17 12 8 4 0 358 353 350 348 342 336 333 333 332 332 331 326 315 311 303 300 278 306 302 306 293 288 267 258 228 217 219 251 210 204 200 195 248 249 253 266
27 24 20 16 17 14 11 8 5 3 0 359 356 352 349 345 342 345 347 350 345 329 320 316 308 292 255 267 300 292 288 283 266 248 254 244 224 204 239 273 251 266 282 282 252 194 239
17 12 11 9 10 8 5 2 0 360 359 357 352 348 345 343 339 344 353 359 349 315 312 314 315 293 266 306 312 303 314 302 270 234 232 243 211 256 220 282 312 213 169 243 250 231 214
9 5 6 4 1 1 359 358 357 356 354 350 346 344 346 344 343 342 349 343 348 330 344 336 319 316 280 321 323 335 346 310 296 229 224 231 231 216 171 170 353 236 241 223 290 201 205
3 3 3 2 360 358 356 355 354 353 350 347 345 342 345 342 340 332 333 329 320 279 330 334 344 323 284 303 310 301 288 314 300 211 211 210 208 168 162 163 212 221 230 59 169 223 211
11 11 11 8 5 2 358 356 354 352 349 344 340 337 339 338 333 323 333 345 5 332 307 292 289 282 284 313 309 288 298 298 296 247 177 188 161 212 212 225 283 297 323 334 301 244 229
9 9 10 9 5 3 0 357 354 351 347 342 339 335 336 338 321 319 341 11 355 323 303 318 293 309 330 321 298 298 269 264 336 304 297 150 228 174 143 177 224 255 269 271 286 276 274
14 13 12 11 9 5 0 356 353 351 348 343 341 335 335 344 299 332 327 342 353 337 285 294 300 330 359 350 296 290 231 232 272 285 250 203 251 251 236 246 258 240 230 257 258 297 291
13 12 11 9 7 5 1 357 354 353 351 347 346 336 337 346 343 340 357 341 340 335 36 282 327 332 336 352 295 322 12 248 237 234 232 234 244 221 228 244 226 254 234 260 273 213 257
13 10 7 3 2 1 0 358 356 355 354 349 346 334 336 332 331 336 343 338 339 307 331 329 324 332 330 317 325 318 359 230 231 223 186 243 226 197 226 232 231 263 226 232 225 249 276
14 10 5 2 360 357 355 356 355 354 352 347 345 333 328 323 341 350 338 334 342 49 298 328 337 325 339 340 343 335 351 336 252 234 237 230 274 202 219 228 219 254 241 223 232 169 248
10 9 7 5 3 0 356 355 354 353 352 347 345 328 306 331 339 352 342 343 42 87 316 336 318 320 314 338 321 347 325 252 83 5 33 241 249 252 241 221 220 168 85 213 140 194 231
7 5 6 6 5 3 360 355 356 354 352 349 349 10 22 359 357 353 343 43 61 312 276 308 315 303 314 1 312 350 353 14 36 138 269 245 284 223 198 198 193 187 169 184 184 190 237
2 0 0 2 3 3 0 358 355 356 354 351 2 23 40 3 359 359 357 47 200 237 276 323 322 331 330 345 313 350 331 267 208 246 186 344 226 337 154 179 155 230 176 205 3 229 199
360 1 359 359 359 0 1 359 355 358 358 353 355 54 40 11 353 349 58 292 252 244 309 298 275 270 312 311 321 336 291 273 322 313 300 276 288 290 339 12 212 177 214 145 96 237 241
359 1 1 360 358 357 357 0 357 355 359 358 358 50 22 357 334 357 120 241 283 300 321 305 272 289 298 316 272 274 285 303 118 340 342 21 93 285 330 203 205 158 241 222 184 211 228
354 352 353 354 355 356 356 359 0 356 357 3 3 51 333 300 10 52 327 268 295 302 329 298 236 251 253 304 274 270 275 235 156 166 200 214 133 262 240 244 273 65 211 167 180 237 249
353 351 348 351 353 355 355 356 2 359 357 351 344 316 33 349 66 312 300 291 267 325 313 310 285 288 179 263 304 264 269 295 270 183 184 142 102 335 323 33 133 208 201 210 205 298 240
347 348 347 345 347 350 352 352 356 4 356 355 352 354 332 7 37 131 310 280 300 324 307 336 275 276 297 262 228 266 260 288 332 228 185 126 196 179 206 260 356 299 270 219 216 233 240
350 349 346 341 341 346 348 348 350 359 3 5 6 350 13 306 334 312 271 270 320 340 294 306 278 325 315 279 294 242 239 275 279 262 126 141 226 212 239 255 268 265 265 258 231 246 243
342 341 340 344 339 340 344 345 346 352 6 11 6 358 327 298 287 282 285 263 314 323 312 286 282 312 302 275 253 277 273 234 262 283 156 176 262 279 278 259 254 265 251 244 242 238 253
334 334 336 337 341 335 337 340 343 346 2 7 342 327 277 273 283 286 259 314 309 317 295 266 296 306 297 289 297 285 273 269 240 219 197 188 217 265 268 308 328 260 230 224 221 207 199
326 327 330 331 335 332 330 333 337 344 346 352 349 336 294 274 273 278 291 295 304 305 291 290 301 292 295 311 306 288 259 254 243 235 223 202 191 217 287 313 251 254 17 215 211 211 214
325 327 329 327 330 330 327 328 330 334 331 332 338 301 268 283 264 295 279 319 304 308 281 291 299 306 318 314 323 329 328 182 254 350 216 222 217 226 239 245 302 291 38 18 312 262 221
329 332 331 328 327 326 324 321 320 322 326 316 332 284 247 289 255 266 313 296 293 307 296 278 313 329 345 10 348 322 303 294 315 273 205 259 194 191 201 262 277 13 330 350 317 271 85
327 328 327 327 326 324 324 321 308 315 319 307 307 288 251 260 279 287 242 288 292 277 281 293 333 325 7 1 2 321 293 310 315 323 345 77 137 205 214 239 270 265 294 313 186 219 319
323 325 324 324 326 324 320 316 307 303 312 303 294 308 269 251 289 277 265 254 260 271 272 306 337 354 355 5 354 328 294 317 304 271 321 333 250 186 206 236 243 5 309 209 330 310 304
320 320 319 326 328 324 318 317 311 302 298 299 289 302 293 265 273 291 284 273 266 272 264 268 281 285 310 341 351 300 291 296 299 315 321 2 311 291 298 287 306 288 266 284 325 287 11